Regional Weather Roundup
Issued by NWS Goodland, KS

Home | Current Version | Previous Version | Graphics & Text | Print | Product List | Glossary On
Versions: 1 2 3 4 5 6 7 8 9 10 11 12 13 14 15 16 17 18 19 20 21 22 23 24 25 26 27 28 29 30 31 32 33 34 35 36 37 38 39 40 41 42 43 44 45 46 47 48 49 50
000
ASUS43 KGLD 241559
RWRGLD

GOODLAND FORECAST AREA HOURLY WEATHER ROUNDUP
NATIONAL WEATHER SERVICE GOODLAND KS
1000 AM MDT WED AUG 24 2016

...OFFICIAL OBSERVATIONS...

CITY           SKY/WX    TMP DP  RH WIND       PRES   REMARKS
GOODLAND KS    PTSUNNY   69  48  47 NE13      30.15S
HILL CITY KS   CLOUDY    66  59  78 NW10      30.08R
IMPERIAL NEB   CLOUDY    67  44  43 N7        30.17R
MCCOOK NEB     PTSUNNY   70  44  39 VRB5      30.11R
AKRON CO       CLOUDY    64  40  41 CALM      30.24R
BURLINGTON CO  CLOUDY    67  40  37 NE16      30.18R
LIMON CO       CLOUDY    68  39  34 NE8       30.26R
$$

...UNOFFICIAL OBSERVATIONS...

CITY           SKY/WX    TMP DP  RH WIND       PRES   REMARKS
COLBY KS       CLOUDY    70  52  52 NE15      30.14R
NORTON KS      MOSUNNY   64  48  55 NE9       30.09R
SHARON SPRINGS   N/A     71  53  52 NE13G21     N/A
KIT CARSON CO    N/A     69  42  37 MISG        N/A
YUMA CO          N/A     65  47  52 E5          N/A
$$



USA.gov is the U.S. government's official web portal to all federal, state and local government web resources and services.